Theta_e
312 313 312 311 310 308 310 310 312 311 311 303 292 292 292 293 291 291 291 293 294 294 295 295 294 294 293 293 292 291 291 292 292 292 293 293 292 293 292 290 290 288 288 288
304 303 302 304 305 305 305 305 306 307 304 291 292 291 291 291 292 290 291 293 295 293 295 293 293 293 292 292 291 290 290 290 290 291 292 292 293 292 291 290 288 288 287 287
303 300 300 300 300 302 302 301 300 301 293 291 291 290 289 290 292 289 290 292 294 291 291 290 291 292 291 291 291 290 289 289 289 289 289 290 291 291 290 288 287 286 285 285
301 294 299 297 296 297 297 295 294 293 290 290 290 289 289 292 288 289 290 292 291 289 288 288 288 289 289 290 289 290 289 288 288 288 288 289 289 289 289 287 286 285 284 284
295 289 294 297 293 293 295 295 292 292 292 292 290 289 287 287 288 289 288 291 287 286 286 286 285 286 288 285 286 288 289 289 287 287 287 287 287 287 287 285 284 283 283 283
289 293 289 294 291 291 292 291 287 289 290 290 289 287 286 287 288 288 289 286 284 283 283 284 284 285 283 283 284 284 286 286 286 286 287 286 285 285 284 284 283 282 282 282
285 284 284 287 288 288 287 287 283 288 289 288 288 286 287 287 285 286 286 282 282 281 281 281 283 281 280 281 281 281 281 280 284 286 286 287 284 283 282 282 281 281 280 279
274 277 283 288 287 287 285 286 286 287 289 289 288 288 287 285 284 283 281 281 280 279 279 279 279 278 278 278 278 277 277 278 280 281 284 284 283 281 280 280 279 278 278 277
283 283 288 289 288 289 287 286 287 288 289 287 287 286 285 283 282 282 280 280 279 278 277 277 277 276 275 275 274 274 274 275 276 278 281 282 281 280 278 278 277 276 276 276
288 288 288 288 288 287 287 287 287 287 287 286 285 283 282 281 280 280 279 278 277 276 276 275 275 274 273 272 271 271 271 272 272 274 277 281 279 279 278 277 277 277 276 276
288 288 288 288 288 288 288 287 285 284 283 282 280 280 280 279 278 277 277 276 275 274 274 273 272 271 270 269 268 268 268 269 270 271 274 278 279 279 278 278 279 278 277 277
288 288 288 288 288 285 285 284 280 279 279 279 278 278 277 276 275 275 274 273 272 271 270 270 269 268 267 266 266 265 266 266 268 270 272 274 279 278 278 279 278 279 279 278
288 288 288 287 282 279 279 278 277 276 276 275 274 274 273 273 272 271 270 269 268 267 267 266 265 264 264 263 263 264 264 264 265 267 269 272 277 277 277 277 279 280 280 280
282 281 286 282 281 276 276 274 273 272 272 272 272 270 270 269 268 267 266 266 265 264 263 263 263 262 262 262 262 263 263 263 264 266 268 271 274 277 276 276 276 279 280 280
275 275 275 274 274 273 272 271 270 270 270 269 268 267 267 266 265 264 263 263 263 263 263 262 262 262 262 262 262 262 262 263 264 266 268 270 272 276 275 275 276 277 278 279
271 271 271 270 270 270 268 268 267 268 267 267 265 265 264 263 262 262 263 263 263 263 262 262 262 262 262 262 262 262 263 263 264 266 267 268 271 275 274 274 274 276 277 278
269 270 266 266 266 266 266 266 266 266 265 264 263 262 261 262 262 263 262 262 261 260 260 261 261 261 262 261 261 262 263 263 264 265 267 269 272 273 273 273 274 275 276 277
264 264 264 264 264 264 264 264 263 262 262 261 261 261 261 263 262 262 260 260 260 260 261 261 261 262 262 263 263 263 264 264 264 265 267 270 272 272 272 273 273 274 276 277
261 261 262 263 262 262 261 261 260 260 260 260 260 261 262 262 262 260 260 260 260 261 261 261 262 262 262 263 264 265 266 267 268 269 270 271 271 271 272 272 273 274 275 276
259 259 259 259 259 259 259 259 259 259 259 259 261 261 262 262 261 260 260 260 260 260 260 261 262 263 263 263 264 264 266 267 268 269 270 270 271 271 272 272 273 273 268 267
257 257 257 257 258 258 258 258 257 257 259 260 261 261 261 261 260 260 260 260 260 259 260 260 261 262 262 262 263 263 264 265 266 267 267 268 267 267 268 267 266 265 264 264
255 254 255 256 256 256 257 258 258 258 260 261 261 261 261 260 260 260 260 260 259 259 260 260 261 261 261 261 262 262 263 263 264 264 265 266 266 265 264 264 263 263 263 264
253 254 255 255 255 256 257 258 259 260 260 261 261 261 260 259 259 259 259 260 259 259 259 260 260 260 260 260 260 261 261 262 262 262 263 263 263 263 263 263 262 262 262 262
253 254 255 257 257 256 254 260 261 260 261 261 261 260 259 259 260 260 259 259 259 259 259 259 259 259 260 259 259 259 260 260 260 261 261 261 261 262 261 261 261 262 262 262
255 256 257 258 256 258 261 261 260 261 261 261 261 260 260 260 259 260 259 259 259 259 259 259 259 259 259 259 259 259 259 259 259 260 260 259 260 260 260 261 261 261 262 262
257 258 259 259 260 260 261 261 261 261 261 260 261 260 260 260 260 260 260 260 260 259 259 259 258 259 259 259 259 259 259 260 260 260 260 260 261 260 260 261 261 261 261 261
258 259 259 258 259 259 259 261 261 261 261 261 260 260 260 260 260 260 260 260 260 260 260 259 259 259 259 259 259 259 259 259 259 260 260 260 260 260 261 261 261 261 261 261
Wind_Speed
18 12 6 7 12 17 16 16 11 19 19 5 10 13 14 12 15 14 17 18 16 16 15 23 25 28 30 29 31 31 30 34 33 28 32 33 36 39 41 43 45 45 43 46
11 18 13 19 17 18 21 20 15 18 9 2 2 7 9 8 10 15 15 14 13 15 14 21 27 29 31 30 34 35 32 31 33 34 28 33 36 36 39 42 41 42 44 45
18 12 8 12 21 20 17 17 2 8 3 2 4 7 11 11 7 12 12 15 12 15 14 22 25 27 28 30 30 31 31 31 36 38 37 32 30 33 37 38 37 40 41 43
12 7 18 7 6 9 10 8 6 5 4 6 6 5 10 5 5 9 11 11 11 12 18 22 28 26 28 30 31 28 27 27 32 37 37 35 29 27 31 31 35 36 38 41
4 7 10 7 3 3 2 5 5 4 7 6 8 6 3 4 4 8 11 8 13 19 22 24 27 28 28 30 29 28 28 31 35 39 39 35 27 26 28 27 28 31 31 35
2 4 6 1 2 1 4 4 7 7 8 8 4 5 9 8 5 8 13 13 17 21 22 22 26 25 26 27 27 27 28 31 33 37 37 33 28 24 25 26 26 25 25 28
6 4 7 4 5 1 5 5 5 5 8 8 5 6 9 10 7 10 14 18 21 21 19 22 22 23 26 25 26 28 31 34 33 32 36 33 28 23 24 24 21 20 20 22
2 2 7 4 4 4 6 4 4 5 11 11 8 9 9 11 11 9 12 21 23 20 23 28 24 22 24 27 29 29 32 32 31 34 31 34 25 25 21 23 20 19 19 18
7 6 4 4 8 12 4 7 7 8 11 7 8 11 10 11 13 13 18 22 22 19 26 32 27 23 24 29 28 32 34 34 33 33 31 30 25 22 21 20 17 17 18 19
15 15 17 17 17 6 8 13 13 8 6 5 10 10 11 12 13 14 21 21 23 23 25 30 32 30 29 31 30 31 33 35 34 32 30 28 26 24 22 20 21 20 20 20
13 17 14 16 15 16 15 10 3 3 2 3 5 12 11 13 15 15 22 27 24 23 26 34 36 36 35 34 31 33 34 34 33 31 30 30 28 26 25 28 29 24 24 22
13 19 15 16 17 3 1 1 2 4 6 6 7 11 12 15 18 21 23 29 28 31 32 36 38 39 36 33 32 34 34 32 29 28 28 28 27 25 27 30 27 32 27 29
18 18 16 13 4 5 2 3 4 5 7 11 16 13 14 15 24 27 29 30 30 33 35 36 37 40 38 36 34 34 35 35 32 29 27 25 25 21 12 18 29 30 32 28
2 2 11 3 0 6 5 6 9 10 11 12 15 18 16 19 29 26 26 30 33 36 37 36 38 39 38 37 36 35 35 36 34 30 28 27 26 23 20 15 9 19 31 29
5 5 3 4 2 5 7 9 11 11 10 10 15 17 18 15 17 27 34 35 37 35 35 34 35 37 38 37 36 35 34 31 29 28 27 27 28 23 21 18 16 16 16 24
4 3 2 3 6 5 7 6 9 12 12 14 14 19 23 25 28 30 33 32 28 21 35 35 34 38 37 36 35 34 32 33 32 29 28 27 26 21 16 15 15 16 16 19
2 2 4 2 7 10 8 8 9 12 14 12 19 26 27 26 26 25 28 30 31 34 35 34 35 35 34 33 32 31 29 29 30 28 25 24 23 20 17 16 15 16 17 20
2 2 4 6 8 10 10 9 13 15 13 22 24 24 23 19 17 23 28 30 30 29 29 30 31 33 32 31 30 29 29 28 26 25 23 21 19 16 14 14 14 14 13 18
3 5 7 9 11 11 10 11 16 19 20 22 22 19 23 23 24 25 28 26 23 19 29 37 34 32 30 30 29 25 23 22 21 22 21 15 11 10 11 13 12 13 15 19
5 7 9 11 13 13 14 18 20 20 21 21 21 20 18 21 24 24 24 21 21 25 35 36 32 28 28 27 27 21 18 14 9 4 3 5 5 7 8 10 13 11 16 18
6 9 10 11 13 15 18 20 19 17 21 20 18 17 19 23 22 22 18 11 28 32 33 30 29 26 25 24 22 20 18 15 14 12 11 10 11 12 12 15 17 17 18 20
8 6 10 12 12 14 20 21 22 20 18 17 16 16 17 19 20 20 18 15 29 32 28 27 27 26 24 24 21 20 19 18 17 16 16 15 14 14 15 15 16 17 18 20
12 12 13 13 12 14 22 21 18 16 14 14 13 13 13 15 15 11 10 28 28 30 26 26 29 27 25 24 23 22 22 20 19 18 18 17 16 15 15 16 16 17 18 20
14 16 16 18 18 15 6 15 13 13 12 12 10 11 12 13 15 16 20 23 25 26 25 26 27 27 28 25 24 23 23 22 20 19 18 17 17 16 16 15 17 17 19 22
13 13 12 13 9 5 11 12 12 10 10 9 8 10 10 10 7 18 18 20 22 24 25 27 28 29 29 29 28 26 24 23 22 21 21 20 20 19 18 18 19 20 22 23
11 11 11 11 9 11 11 10 7 8 8 7 7 10 12 12 12 14 16 19 21 23 25 27 27 28 28 27 28 28 27 27 27 26 24 24 24 24 23 23 22 22 21 19
9 9 10 9 11 12 12 10 8 8 9 8 6 11 12 13 14 15 17 19 21 22 23 25 26 27 27 27 27 27 27 27 26 25 25 24 24 23 22 20 19 17 15 13
Wind_Direction
268 287 317 297 290 287 265 265 265 286 286 24 11 353 352 358 358 0 352 348 352 350 342 345 348 348 349 345 343 342 347 345 338 318 294 271 255 249 243 237 233 231 226 222
298 293 292 282 271 260 266 278 264 259 262 20 317 328 332 335 346 343 342 338 340 341 342 339 340 339 340 340 339 338 343 347 343 342 331 297 275 255 242 236 230 228 221 222
271 285 298 278 253 253 255 264 267 252 115 217 280 314 329 322 324 340 331 317 331 331 333 329 328 329 330 329 331 335 335 337 344 344 339 325 298 264 242 231 223 219 217 217
275 316 270 254 68 73 96 98 100 101 198 219 244 282 296 184 322 319 319 311 316 319 320 318 322 324 326 329 328 329 328 327 337 338 333 332 306 274 252 236 222 216 214 216
233 216 281 292 39 92 185 175 176 208 248 252 269 276 214 336 294 300 301 301 311 312 310 315 316 321 326 327 326 325 326 324 327 332 328 323 307 284 261 242 228 219 215 210
121 222 231 173 252 254 117 262 222 203 232 227 249 310 308 313 300 295 295 297 300 301 298 297 306 316 321 317 318 320 323 320 312 316 322 313 309 290 268 245 235 226 218 216
237 250 287 236 260 129 94 246 227 199 225 222 209 215 278 301 290 285 292 300 302 303 296 298 298 311 306 307 306 313 314 314 312 307 315 320 303 289 269 246 233 225 224 218
83 31 292 214 354 150 221 271 226 262 247 224 238 258 265 283 292 287 294 297 298 301 300 302 300 305 298 295 304 307 305 306 309 309 303 304 297 278 255 238 216 208 206 210
188 218 244 224 234 277 205 229 259 243 242 228 259 269 271 279 284 288 288 287 291 288 291 293 293 293 289 294 306 308 307 305 305 304 301 284 277 254 240 224 216 196 197 203
269 263 256 266 272 259 270 269 274 241 244 232 252 268 281 285 287 291 291 287 292 291 286 288 294 296 291 301 306 304 300 299 299 297 295 283 259 247 231 222 212 212 200 204
252 261 270 266 265 265 266 278 270 284 251 268 287 281 283 282 284 287 290 294 295 287 288 289 295 294 297 301 303 298 294 291 290 289 286 282 257 245 237 237 229 220 212 205
252 262 260 271 277 45 252 287 33 334 315 291 277 279 286 283 287 291 291 295 297 294 293 293 296 295 297 297 297 292 288 287 285 284 283 280 269 257 248 248 245 239 236 213
250 260 272 272 106 56 25 349 323 306 288 290 293 294 294 289 291 294 295 296 295 295 295 296 295 293 296 295 290 283 280 283 284 279 274 273 272 246 251 256 244 243 238 227
341 353 273 96 89 353 343 322 306 290 282 275 288 299 296 297 299 298 296 298 297 294 294 293 291 288 293 291 286 281 278 278 276 275 273 271 268 251 238 237 237 238 234 229
47 30 358 343 352 340 340 337 324 315 314 309 308 301 305 299 299 301 302 300 297 294 292 291 291 293 294 291 286 282 280 276 274 274 273 273 277 257 226 228 228 230 224 220
338 330 9 341 321 335 336 319 301 306 317 310 308 309 307 302 298 299 301 304 305 305 303 301 297 295 296 292 287 283 279 275 270 270 269 263 262 247 221 220 223 226 209 213
26 332 343 322 329 322 316 306 297 297 302 303 304 308 308 306 304 310 313 311 307 303 303 301 299 300 299 294 289 285 282 277 270 265 262 260 259 227 216 212 217 219 217 207
60 297 282 277 295 303 302 299 296 294 296 300 302 304 305 310 310 312 311 312 311 309 310 309 307 305 305 302 297 290 282 273 266 259 262 258 241 217 210 213 213 211 207 200
323 302 304 300 301 298 296 297 296 296 298 300 302 302 307 305 308 307 312 315 316 320 326 325 318 320 315 314 312 306 300 292 277 264 250 235 214 203 203 203 203 193 183 186
306 300 293 288 287 281 287 288 289 293 294 296 300 305 306 310 315 316 318 316 319 325 325 326 328 327 329 327 328 324 325 334 339 8 130 163 176 166 167 166 157 133 100 104
290 291 292 292 290 284 277 284 288 289 293 297 301 301 308 312 317 323 326 329 333 332 330 334 337 339 339 341 350 351 357 9 24 31 49 61 72 82 80 78 89 99 100 106
277 275 284 285 287 290 296 301 298 285 287 297 299 306 316 318 328 331 334 327 332 338 342 343 347 354 357 2 2 9 16 21 25 34 42 50 59 65 69 76 83 92 102 111
289 291 295 290 282 286 299 303 299 293 292 296 305 318 319 314 320 336 337 341 343 347 349 354 359 7 13 18 17 17 18 25 32 38 42 48 56 70 82 85 89 101 109 115
303 303 296 301 303 297 285 313 313 308 307 313 320 332 327 330 342 358 346 348 355 1 2 4 10 26 32 27 24 26 28 28 30 38 50 60 63 72 78 86 96 108 116 122
304 305 307 310 305 295 314 319 319 324 330 334 346 353 358 4 346 345 357 9 16 20 20 25 32 39 40 43 45 45 44 40 45 54 58 61 66 74 85 95 102 108 112 116
323 323 328 331 330 330 328 326 323 329 337 346 355 3 11 17 17 13 18 23 26 29 32 34 35 42 46 46 50 52 55 60 63 67 72 75 79 81 85 90 95 98 102 106
356 360 354 352 352 344 340 343 345 341 348 3 351 8 17 21 24 23 24 25 28 30 32 35 39 43 47 50 54 57 60 62 65 69 73 77 80 82 85 88 91 94 97 100